TimeEST,TemperatureF,Dew PointF,Humidity,Sea Level PressureIn,VisibilityMPH,Wind Direction,Wind SpeedMPH,Gust SpeedMPH,PrecipitationIn,Events,Conditions,WindDirDegrees,DateUTC
12:53 AM,62.1,55.9,80,30.17,10.0,East,9.2,-,N/A,,Clear,80,2013-02-10 05:53:00
1:53 AM,61.0,55.9,83,30.16,10.0,East,8.1,-,N/A,,Scattered Clouds,80,2013-02-10 06:53:00
2:53 AM,62.1,57.0,84,30.15,10.0,East,9.2,-,N/A,,Partly Cloudy,90,2013-02-10 07:53:00
3:53 AM,62.1,57.0,84,30.15,10.0,East,8.1,-,N/A,,Clear,90,2013-02-10 08:53:00
4:53 AM,63.0,57.9,84,30.15,10.0,East,9.2,-,N/A,,Mostly Cloudy,100,2013-02-10 09:53:00
5:53 AM,62.1,57.9,86,30.15,10.0,East,10.4,-,N/A,,Clear,100,2013-02-10 10:53:00
6:53 AM,62.1,57.0,84,30.17,10.0,ESE,10.4,-,N/A,,Mostly Cloudy,110,2013-02-10 11:53:00
7:53 AM,63.0,57.9,84,30.20,10.0,East,11.5,-,N/A,,Partly Cloudy,100,2013-02-10 12:53:00
8:53 AM,66.9,57.9,73,30.21,10.0,East,15.0,-,N/A,,Clear,100,2013-02-10 13:53:00
10:53 AM,75.9,59.0,56,30.22,10.0,ESE,19.6,-,N/A,,Clear,110,2013-02-10 15:53:00
11:53 AM,79.0,59.0,50,30.21,10.0,SE,18.4,-,N/A,,Clear,130,2013-02-10 16:53:00
12:53 PM,80.1,59.0,48,30.19,10.0,ESE,17.3,24.2,N/A,,Scattered Clouds,120,2013-02-10 17:53:00
1:53 PM,80.1,57.9,47,30.15,10.0,ESE,16.1,20.7,N/A,,Mostly Cloudy,110,2013-02-10 18:53:00
2:53 PM,82.9,55.9,39,30.13,10.0,SSE,13.8,-,N/A,,Partly Cloudy,150,2013-02-10 19:53:00
3:53 PM,78.1,61.0,56,30.13,10.0,SSW,11.5,-,N/A,,Mostly Cloudy,210,2013-02-10 20:53:00
4:53 PM,73.9,62.1,66,30.14,10.0,SSW,10.4,-,N/A,,Mostly Cloudy,210,2013-02-10 21:53:00
5:53 PM,73.0,62.1,68,30.14,10.0,SSW,5.8,-,N/A,,Mostly Cloudy,200,2013-02-10 22:53:00
6:53 PM,72.0,61.0,68,30.15,10.0,South,5.8,-,N/A,,Partly Cloudy,170,2013-02-10 23:53:00
7:53 PM,73.0,59.0,61,30.17,10.0,SE,12.7,-,N/A,,Mostly Cloudy,130,2013-02-11 00:53:00
8:53 PM,70.0,59.0,68,30.19,10.0,ESE,10.4,-,N/A,,Partly Cloudy,120,2013-02-11 01:53:00
9:53 PM,66.9,59.0,76,30.19,10.0,ESE,8.1,-,N/A,,Scattered Clouds,120,2013-02-11 02:53:00
10:53 PM,66.0,59.0,78,30.18,10.0,ESE,8.1,-,N/A,,Clear,120,2013-02-11 03:53:00
11:53 PM,64.9,59.0,81,30.18,10.0,ESE,8.1,-,N/A,,Clear,120,2013-02-11 04:53:00